Time,TemperatureF,DewpointF,PressureIn,WindDirection,WindDirectionDegrees,WindSpeedMPH,WindSpeedGustMPH,Humidity,HourlyPrecipIn,Conditions,Clouds,dailyrainin,SoftwareType,DateUTC
2013-07-27 00:00:00,59.4,54.0,30.02,NW,308,0.0,7.0,83,0.00,,,0.02,weatherlink.com 1.10,2013-07-27 05:00:00,
2013-07-27 00:15:00,59.6,54.0,30.02,NW,308,0.0,8.0,83,0.00,,,0.00,weatherlink.com 1.10,2013-07-27 05:15:00,
2013-07-27 00:30:00,59.5,54.0,30.02,NW,310,0.0,9.0,83,0.00,,,0.00,weatherlink.com 1.10,2013-07-27 05:30:00,
2013-07-27 00:45:00,59.5,54.0,30.02,NW,312,0.0,7.0,82,0.00,,,0.00,weatherlink.com 1.10,2013-07-27 05:45:00,
2013-07-27 01:00:00,59.0,54.0,30.02,NW,312,0.0,6.0,83,0.00,,,0.00,weatherlink.com 1.10,2013-07-27 06:00:00,
2013-07-27 01:15:00,58.0,54.0,30.02,NW,312,0.0,1.0,85,0.00,,,0.00,weatherlink.com 1.10,2013-07-27 06:15:00,
2013-07-27 01:30:00,57.2,53.0,30.02,NW,312,0.0,1.0,86,0.00,,,0.00,weatherlink.com 1.10,2013-07-27 06:30:00,
2013-07-27 01:45:00,57.0,53.0,30.02,NW,312,0.0,3.0,87,0.00,,,0.00,weatherlink.com 1.10,2013-07-27 06:45:00,
2013-07-27 02:00:00,56.8,53.0,30.02,NW,312,0.0,1.0,88,0.00,,,0.00,weatherlink.com 1.10,2013-07-27 07:00:00,
2013-07-27 02:15:00,56.7,53.0,30.02,NW,312,0.0,4.0,87,0.00,,,0.00,weatherlink.com 1.10,2013-07-27 07:15:00,
2013-07-27 02:30:00,56.5,53.0,30.02,NW,312,0.0,2.0,87,0.00,,,0.00,weatherlink.com 1.10,2013-07-27 07:30:00,
2013-07-27 02:45:00,56.5,53.0,30.02,NW,312,0.0,6.0,87,0.00,,,0.00,weatherlink.com 1.10,2013-07-27 07:45:00,
2013-07-27 03:00:00,56.2,52.0,30.02,NW,312,0.0,0.0,87,0.00,,,0.00,weatherlink.com 1.10,2013-07-27 08:00:00,
2013-07-27 03:15:00,55.9,52.0,30.02,NW,312,0.0,0.0,88,0.00,,,0.00,weatherlink.com 1.10,2013-07-27 08:15:00,
2013-07-27 03:30:00,55.3,52.0,30.02,NW,312,0.0,3.0,88,0.00,,,0.00,weatherlink.com 1.10,2013-07-27 08:30:00,
2013-07-27 03:45:00,55.0,52.0,30.02,NW,312,4.0,6.0,89,0.00,,,0.00,weatherlink.com 1.10,2013-07-27 08:45:00,
2013-07-27 04:00:00,54.8,52.0,30.01,NW,312,0.0,5.0,89,0.00,,,0.00,weatherlink.com 1.10,2013-07-27 09:00:00,
2013-07-27 04:15:00,54.6,52.0,30.02,NW,313,0.0,6.0,89,0.00,,,0.00,weatherlink.com 1.10,2013-07-27 09:15:00,
2013-07-27 04:30:00,54.5,51.0,30.02,NW,313,0.0,6.0,89,0.00,,,0.00,weatherlink.com 1.10,2013-07-27 09:30:00,
2013-07-27 04:45:00,54.2,51.0,30.02,NW,313,0.0,0.0,89,0.00,,,0.00,weatherlink.com 1.10,2013-07-27 09:45:00,
2013-07-27 05:00:00,53.6,51.0,30.03,NW,313,0.0,0.0,90,0.00,,,0.00,weatherlink.com 1.10,2013-07-27 10:00:00,
2013-07-27 05:15:00,52.9,50.0,30.02,NW,313,0.0,0.0,90,0.00,,,0.00,weatherlink.com 1.10,2013-07-27 10:15:00,
2013-07-27 05:30:00,52.2,50.0,30.02,NW,313,0.0,0.0,91,0.00,,,0.00,weatherlink.com 1.10,2013-07-27 10:30:00,
2013-07-27 05:45:00,51.8,50.0,30.02,NW,313,0.0,0.0,92,0.00,,,0.00,weatherlink.com 1.10,2013-07-27 10:45:00,
2013-07-27 06:00:00,51.8,50.0,30.03,NW,313,0.0,0.0,93,0.00,,,0.00,weatherlink.com 1.10,2013-07-27 11:00:00,
2013-07-27 06:15:00,51.6,50.0,30.03,NW,313,0.0,0.0,93,0.00,,,0.00,weatherlink.com 1.10,2013-07-27 11:15:00,
2013-07-27 06:31:00,51.7,50.0,30.03,NW,313,0.0,0.0,93,0.00,,,0.00,weatherlink.com 1.10,2013-07-27 11:31:00,
2013-07-27 06:46:00,51.7,50.0,30.04,NW,313,0.0,3.0,94,0.00,,,0.00,weatherlink.com 1.10,2013-07-27 11:46:00,
2013-07-27 07:01:00,51.9,50.0,30.04,NW,313,0.0,3.0,94,0.00,,,0.00,weatherlink.com 1.10,2013-07-27 12:01:00,
2013-07-27 07:16:00,52.8,51.0,30.05,NW,313,0.0,2.0,93,0.00,,,0.00,weatherlink.com 1.10,2013-07-27 12:16:00,
2013-07-27 07:31:00,53.7,52.0,30.06,NW,313,0.0,1.0,92,0.00,,,0.00,weatherlink.com 1.10,2013-07-27 12:31:00,
2013-07-27 07:46:00,54.5,52.0,30.06,NW,312,0.0,7.0,91,0.00,,,0.00,weatherlink.com 1.10,2013-07-27 12:46:00,
2013-07-27 08:01:00,55.0,52.0,30.07,NW,308,0.0,7.0,89,0.00,,,0.00,weatherlink.com 1.10,2013-07-27 13:01:00,
2013-07-27 08:16:00,55.9,52.0,30.07,NW,306,0.0,6.0,87,0.00,,,0.00,weatherlink.com 1.10,2013-07-27 13:16:00,
2013-07-27 08:31:00,56.9,53.0,30.07,NW,306,0.0,4.0,88,0.00,,,0.00,weatherlink.com 1.10,2013-07-27 13:31:00,
2013-07-27 08:46:00,58.7,54.0,30.07,WNW,301,0.0,8.0,83,0.00,,,0.00,weatherlink.com 1.10,2013-07-27 13:46:00,
2013-07-27 09:01:00,59.4,53.0,30.07,NNW,329,0.0,9.0,78,0.00,,,0.00,weatherlink.com 1.10,2013-07-27 14:01:00,
2013-07-27 09:16:00,59.3,53.0,30.07,NNW,331,0.0,6.0,79,0.00,,,0.00,weatherlink.com 1.10,2013-07-27 14:16:00,
2013-07-27 09:31:00,60.3,53.0,30.06,NW,309,2.0,8.0,77,0.00,,,0.00,weatherlink.com 1.10,2013-07-27 14:31:00,
2013-07-27 09:46:00,62.2,53.0,30.06,NW,325,0.0,9.0,71,0.00,,,0.00,weatherlink.com 1.10,2013-07-27 14:46:00,
2013-07-27 10:01:00,63.1,53.0,30.07,NW,322,3.0,7.0,70,0.00,,,0.00,weatherlink.com 1.10,2013-07-27 15:01:00,
2013-07-27 10:16:00,63.1,51.0,30.06,WNW,288,6.0,13.0,66,0.00,,,0.00,weatherlink.com 1.10,2013-07-27 15:16:00,
2013-07-27 10:46:00,63.9,49.0,30.06,NW,315,4.0,13.0,58,0.00,,,0.00,weatherlink.com 1.10,2013-07-27 15:46:00,
2013-07-27 11:01:00,64.1,49.0,30.05,NW,317,7.0,13.0,59,0.00,,,0.00,weatherlink.com 1.10,2013-07-27 16:01:00,
2013-07-27 11:16:00,65.0,50.0,30.05,WNW,298,7.0,11.0,59,0.00,,,0.00,weatherlink.com 1.10,2013-07-27 16:16:00,
2013-07-27 11:31:00,65.6,50.0,30.05,NW,315,3.0,14.0,58,0.00,,,0.00,weatherlink.com 1.10,2013-07-27 16:31:00,
2013-07-27 11:46:00,65.6,51.0,30.05,NNW,340,0.0,10.0,59,0.00,,,0.00,weatherlink.com 1.10,2013-07-27 16:46:00,
2013-07-27 12:31:00,65.6,50.0,30.04,WNW,299,3.0,13.0,57,0.00,,,0.00,weatherlink.com 1.10,2013-07-27 17:31:00,
2013-07-27 13:01:00,67.5,51.0,30.03,NW,321,7.0,12.0,56,0.00,,,0.00,weatherlink.com 1.10,2013-07-27 18:01:00,
2013-07-27 13:31:00,67.6,51.0,30.02,NW,325,5.0,14.0,56,0.00,,,0.00,weatherlink.com 1.10,2013-07-27 18:31:00,
2013-07-27 13:46:00,68.4,49.0,30.02,WNW,290,0.0,20.0,51,0.00,,,0.00,weatherlink.com 1.10,2013-07-27 18:46:00,
2013-07-27 14:01:00,67.6,49.0,30.02,NNW,330,5.0,18.0,52,0.00,,,0.00,weatherlink.com 1.10,2013-07-27 19:01:00,
2013-07-27 14:16:00,66.4,49.0,30.02,NNW,333,6.0,16.0,54,0.00,,,0.00,weatherlink.com 1.10,2013-07-27 19:16:00,
2013-07-27 14:31:00,67.2,48.0,30.01,NW,313,1.0,17.0,51,0.00,,,0.00,weatherlink.com 1.10,2013-07-27 19:31:00,
2013-07-27 14:46:00,69.8,51.0,30.01,NNW,334,7.0,17.0,52,0.00,,,0.00,weatherlink.com 1.10,2013-07-27 19:46:00,
2013-07-27 15:01:00,66.9,49.0,30.01,WNW,294,0.0,15.0,53,0.00,,,0.00,weatherlink.com 1.10,2013-07-27 20:01:00,
2013-07-27 15:16:00,68.4,50.0,30.00,NW,310,0.0,16.0,53,0.00,,,0.00,weatherlink.com 1.10,2013-07-27 20:16:00,
2013-07-27 15:31:00,68.5,50.0,30.00,NW,308,1.0,13.0,51,0.00,,,0.00,weatherlink.com 1.10,2013-07-27 20:31:00,
2013-07-27 15:46:00,68.2,50.0,29.99,NW,304,13.0,13.0,53,0.00,,,0.00,weatherlink.com 1.10,2013-07-27 20:46:00,
2013-07-27 16:01:00,69.3,51.0,29.99,NNW,344,3.0,13.0,52,0.00,,,0.00,weatherlink.com 1.10,2013-07-27 21:01:00,
2013-07-27 16:17:00,70.1,50.0,29.99,WNW,299,2.0,18.0,50,0.00,,,0.00,weatherlink.com 1.10,2013-07-27 21:17:00,
2013-07-27 16:31:00,70.1,50.0,29.99,WNW,297,3.0,14.0,50,0.00,,,0.00,weatherlink.com 1.10,2013-07-27 21:31:00,
2013-07-27 16:46:00,69.9,51.0,29.98,NNW,344,6.0,17.0,51,0.00,,,0.00,weatherlink.com 1.10,2013-07-27 21:46:00,
2013-07-27 17:01:00,69.6,49.0,29.98,NW,321,13.0,18.0,49,0.00,,,0.00,weatherlink.com 1.10,2013-07-27 22:01:00,
2013-07-27 17:16:00,69.5,49.0,29.98,NW,316,0.0,16.0,48,0.00,,,0.00,weatherlink.com 1.10,2013-07-27 22:16:00,
2013-07-27 17:32:00,69.1,50.0,29.97,WNW,303,0.0,10.0,50,0.00,,,0.00,weatherlink.com 1.10,2013-07-27 22:32:00,
2013-07-27 17:47:00,69.1,48.0,29.97,NW,308,10.0,14.0,48,0.00,,,0.00,weatherlink.com 1.10,2013-07-27 22:47:00,
2013-07-27 18:02:00,68.4,48.0,29.97,NNW,329,0.0,12.0,49,0.00,,,0.00,weatherlink.com 1.10,2013-07-27 23:02:00,
2013-07-27 18:17:00,68.5,49.0,29.97,NNW,329,0.0,8.0,50,0.00,,,0.00,weatherlink.com 1.10,2013-07-27 23:17:00,
2013-07-27 18:32:00,68.8,49.0,29.97,NW,314,0.0,8.0,50,0.00,,,0.00,weatherlink.com 1.10,2013-07-27 23:32:00,
2013-07-27 18:47:00,67.4,49.0,29.97,NW,313,0.0,10.0,52,0.00,,,0.00,weatherlink.com 1.10,2013-07-27 23:47:00,
2013-07-27 19:02:00,68.2,49.0,29.97,NW,307,7.0,7.0,51,0.00,,,0.00,weatherlink.com 1.10,2013-07-28 00:02:00,
2013-07-27 19:17:00,68.1,48.0,29.97,NW,309,6.0,10.0,49,0.00,,,0.00,weatherlink.com 1.10,2013-07-28 00:17:00,
2013-07-27 19:32:00,67.7,49.0,29.97,NW,319,4.0,7.0,51,0.00,,,0.00,weatherlink.com 1.10,2013-07-28 00:32:00,
2013-07-27 19:47:00,66.9,49.0,29.97,NW,316,0.0,1.0,53,0.00,,,0.00,weatherlink.com 1.10,2013-07-28 00:47:00,
2013-07-27 20:02:00,65.8,49.0,29.97,NW,316,0.0,0.0,56,0.00,,,0.00,weatherlink.com 1.10,2013-07-28 01:02:00,
2013-07-27 20:17:00,64.6,49.0,29.97,NW,316,0.0,0.0,57,0.00,,,0.00,weatherlink.com 1.10,2013-07-28 01:17:00,
2013-07-27 20:32:00,63.1,51.0,29.97,NW,316,0.0,0.0,64,0.00,,,0.00,weatherlink.com 1.10,2013-07-28 01:32:00,
2013-07-27 20:47:00,61.4,50.0,29.97,NW,316,0.0,0.0,67,0.00,,,0.00,weatherlink.com 1.10,2013-07-28 01:47:00,
2013-07-27 21:02:00,60.0,50.0,29.98,NW,316,0.0,0.0,69,0.00,,,0.00,weatherlink.com 1.10,2013-07-28 02:02:00,
2013-07-27 21:32:00,59.1,50.0,29.98,NW,316,0.0,0.0,72,0.00,,,0.00,weatherlink.com 1.10,2013-07-28 02:32:00,
2013-07-27 21:47:00,58.6,50.0,29.98,NW,316,0.0,0.0,73,0.00,,,0.00,weatherlink.com 1.10,2013-07-28 02:47:00,
2013-07-27 22:02:00,58.0,50.0,29.99,NW,316,0.0,0.0,74,0.00,,,0.00,weatherlink.com 1.10,2013-07-28 03:02:00,
2013-07-27 22:17:00,57.8,50.0,29.99,NW,316,0.0,0.0,75,0.00,,,0.00,weatherlink.com 1.10,2013-07-28 03:17:00,
2013-07-27 22:32:00,57.6,50.0,29.99,NW,316,0.0,0.0,76,0.00,,,0.00,weatherlink.com 1.10,2013-07-28 03:32:00,
2013-07-27 22:47:00,57.4,50.0,29.99,NW,316,0.0,0.0,76,0.00,,,0.00,weatherlink.com 1.10,2013-07-28 03:47:00,
2013-07-27 23:02:00,56.8,50.0,29.99,NW,316,0.0,0.0,77,0.00,,,0.00,weatherlink.com 1.10,2013-07-28 04:02:00,
2013-07-27 23:17:00,56.3,49.0,29.99,NW,316,0.0,0.0,77,0.00,,,0.00,weatherlink.com 1.10,2013-07-28 04:17:00,
2013-07-27 23:32:00,55.9,49.0,29.99,NW,316,0.0,0.0,77,0.00,,,0.00,weatherlink.com 1.10,2013-07-28 04:32:00,
2013-07-27 23:47:00,55.6,49.0,29.99,NW,316,0.0,0.0,77,0.00,,,0.00,weatherlink.com 1.10,2013-07-28 04:47:00,